[[{"header":{"parameterUnit":"m.s-1","parameterCategory":1,"la1":30.2991,"la2":30.254,"lo1":-89.0895,"lo2":-89.0444,"dy":0.0017,"dx":0.0017,"nx":28,"ny":28,"refTime":"2024-06-17T09:00:00:Z","depth":0,"parameterNumber":2,"parameterNumberName":"U-component_of_WINDS"},"data":[0,0,0,0,0,0,0,0,0,0,0,0,0,0,0,0,0,0,0,0,0,0,0,0,0,0,0,0,0,0,0,0,0,0,0,0,0,0,0,0,0,0,0,0,0,0,0,0,0,0,0,0,0,0,0,0,0,0,-8.6113,-8.6113,0,-8.6141,-8.6141,-8.6141,-8.597,-8.5965,-8.596,-8.5955,-8.5985,-8.599,-8.5995,0,0,0,0,0,0,0,0,0,0,0,0,0,-8.5913,-8.5917,-8.6113,-8.6113,-8.6113,-8.6141,-8.6141,-8.6141,-8.5971,-8.5965,-8.5959,-8.5953,-8.5983,-8.5989,-8.5995,0,0,0,0,0,0,0,0,0,0,0,0,0,-8.5976,-8.5919,-8.6113,-8.6032,-8.6025,-8.614,-8.6141,-8.6141,-8.5972,-8.5965,-8.5957,-8.595,-8.5981,-8.5988,-8.5996,-8.6192,0,0,-8.6021,-8.6024,0,0,0,0,0,0,0,0,-8.5973,-8.5984,-8.6043,-8.6037,-8.603,-8.6044,-8.6081,-8.6158,-8.5974,-8.5992,-8.5955,-8.5947,-8.601,-8.6015,-8.6037,-8.6193,-8.6194,-8.6021,-8.6026,-8.603,-8.6032,0,0,0,0,0,0,0,-8.5969,-8.5981,-8.6124,-8.6044,-8.6036,-8.5994,-8.5995,-8.6095,-8.6042,-8.599,-8.5977,-8.5983,-8.6005,-8.6029,-8.6036,-8.6195,-8.6021,-8.6028,-8.6033,-8.6036,-8.6513,-8.6521,0,0,0,0,0,0,-8.5975,-8.5979,-8.6123,-8.6124,-8.5983,-8.6004,-8.6005,-8.6047,-8.604,-8.6032,-8.5989,-8.5975,-8.6019,-8.6027,-8.6037,-8.6264,-8.603,-8.6037,-8.6042,-8.6506,-8.6515,-8.6524,0,0,0,0,0,0,-8.5971,-8.5989,-8.6122,-8.6048,-8.6062,-8.6015,-8.6064,-8.6051,-8.6075,-8.604,-8.603,-8.6024,-8.6014,-8.6025,-8.6154,-8.6263,-8.6041,-8.6048,-8.6496,-8.6508,-8.6519,-8.6722,0,0,0,0,0,0,-8.5966,-8.5989,-8.6062,-8.6051,-8.6067,-8.6239,-8.607,-8.6057,-8.6089,-8.6071,-8.6069,-8.6062,-8.6009,-8.6143,-8.6162,-8.627,-8.6054,-8.6486,-8.6502,-8.6516,-8.6705,-8.6739,-8.6768,0,0,0,0,0,-8.596,-8.6118,-8.6067,-8.6085,-8.6157,-8.6246,-8.6254,-8.619,-8.6099,-8.6172,-8.615,-8.6062,-8.6249,-8.6158,-8.6178,-8.6289,-8.6479,-8.6497,-8.6515,-8.6691,-8.6733,-8.6767,0,0,0,0,0,0,-8.6143,-8.6115,-8.6058,-8.6218,-8.6236,-8.6217,-8.6307,-8.6236,-8.628,-8.6261,-8.618,-8.6181,-8.6324,-8.632,-8.6219,-8.6479,-8.6348,-8.6371,-8.6475,-8.6514,-8.6545,-8.6542,-8.6061,0,0,0,0,0,-8.6202,-8.6276,-8.6248,-8.6392,-8.6403,-8.6355,-8.6391,-8.634,-8.6355,-8.6361,-8.6348,-8.6367,-8.6429,-8.6472,-8.6528,-8.6705,-8.6702,-8.6792,-8.6823,-8.6849,-8.6869,-8.6963,-8.7002,-8.6582,-8.6582,-8.6582,0,0,-8.6324,-8.6318,-8.637,-8.6428,-8.6436,-8.6514,-8.6362,-8.6451,-8.6509,-8.6375,-8.6495,-8.6488,-8.6503,-8.6657,-8.6724,-8.6658,-8.6985,-8.6872,-8.6893,-8.6898,-8.6985,-8.7025,-8.706,-8.6594,-8.6592,-8.659,0,0,-8.6587,-8.6591,-8.671,-8.6722,-8.6735,-8.6702,-8.6732,-8.6724,-8.6713,-8.6834,-8.6735,-8.6803,-8.6913,-8.6928,-8.695,-8.7222,-8.7142,-8.7242,-8.7406,-8.7498,-8.7531,-8.756,-8.7656,-8.7692,-8.7263,-8.7263,-8.7264,0,-8.6737,-8.6851,-8.6781,-8.6877,-8.6906,-8.679,-8.691,-8.6925,-8.6957,-8.698,-8.6905,-8.7041,-8.7043,-8.7199,-8.7266,-8.7288,-8.7319,-8.724,-8.7532,-8.756,-8.7586,-8.7677,-8.7714,-8.7275,-8.7274,-8.7273,-8.7271,0,-8.7034,-8.7116,-8.7211,-8.7245,-8.7284,-8.7393,-8.734,-8.7388,-8.7336,-8.7311,-8.7435,-8.7434,-8.7488,-8.7522,-8.7471,-8.7672,-8.763,-8.7546,-8.7412,-8.764,-8.7723,-8.7758,-8.7292,-8.7288,-8.7284,-8.7281,0,0,-8.741,-8.7406,-8.7442,-8.7455,-8.7464,-8.7525,-8.7629,-8.7682,-8.7725,-8.7752,-8.7837,-8.7934,-8.7856,-8.7882,-8.7832,-8.7913,-8.8128,-8.7818,-8.7817,-8.7875,-8.8349,-8.8411,-8.8452,-8.8077,-8.8084,-8.8089,-8.8347,0,-8.7666,-8.7842,-8.7783,-8.7962,-8.8036,-8.7928,-8.8019,-8.8034,-8.8015,-8.8075,-8.8053,-8.8123,-8.8015,-8.803,-8.8106,-8.8086,-8.8222,-8.8067,-8.8155,-8.8159,-8.8152,-8.8496,-8.8562,-8.8806,-8.838,-8.8385,-8.8389,0,-8.7987,-8.8027,-8.8213,-8.8209,-8.8238,-8.8321,-8.8364,-8.8424,-8.844,-8.842,-8.845,-8.8383,-8.8486,-8.8355,-8.8495,-8.8391,-8.8425,-8.8421,-8.8429,-8.8432,-8.8286,-8.8508,-8.8882,-8.8918,-8.8441,-8.8436,-8.8433,0,-8.8241,-8.8342,-8.8466,-8.8482,-8.8481,-8.8541,-8.8544,-8.8552,-8.8588,-8.8627,-8.8649,-8.8701,-8.8729,-8.8771,-8.872,-8.863,-8.8868,-8.8733,-8.8854,-8.8856,-8.8907,-8.8904,-8.929,-8.8933,-8.8932,-8.8932,-8.8931,0,-8.8531,-8.8649,-8.858,-8.8656,-8.8786,-8.8718,-8.8848,-8.8839,-8.8848,-8.8921,-8.8832,-8.8903,-8.8833,-8.8898,-8.886,-8.8982,-8.8996,-8.8982,-8.897,-8.8989,-8.8991,-8.9007,-8.8988,-8.8941,-8.8939,-8.8937,-8.8936,0,-8.8835,-8.8794,-8.8922,-8.8911,-8.8912,-8.9008,-8.8998,-8.9069,-8.9044,-8.9138,-8.9156,-8.9117,-8.9189,-8.9144,-8.9217,-8.9191,-8.935,-8.9316,-8.9345,-8.9334,-8.9458,-8.9446,-8.9866,-8.9917,-8.953,-8.9534,-8.9537,0,-8.9022,-8.9111,-8.911,-8.9152,-8.916,-8.923,-8.9266,-8.9204,-8.9245,-8.9271,-8.9339,-8.9404,-8.9451,-8.9572,-8.955,-8.9606,-8.9571,-8.9715,-8.9579,-8.9595,-8.9572,-8.9566,-8.9574,-8.9742,-8.9746,-8.975,-8.9753,0,-8.9358,-8.9334,-8.9389,-8.9438,-8.9484,-8.9519,-8.9548,-8.9588,-8.9525,-8.9577,-8.9649,-8.9687,-8.9761,-8.9826,-8.9874,-8.9877,-8.9806,-8.9797,-8.9827,-8.9846,-8.9858,-8.9851,-8.9417,-8.9786,-8.9783,-8.978,-8.9779,-8.9777,-8.9608,-8.9681,-8.9692,-8.9757,-8.9772,-8.9801,-8.9867,-8.9851,-8.991,-8.9965,-8.9925,-9.0011,-9.0026,-9.0082,-9.0096,-9.0162,-9.0104,-9.0149,-9.016,-9.0171,-9.0188,-8.985,-9.0171,-9.017,-9.0169,-9.0168,-9.0168,0,-8.9938,-8.994,-9.0,-9.0043,-9.0094,-9.0023,-9.0051,-9.0099,-9.0175,-9.0195,-9.0245,-9.0328,-9.0392,-9.0377,-9.0434,-9.049,-9.0459,-9.0507,-9.0501,-9.0503,-9.0237,-9.0204,-9.0532,-9.0532,-9.0532,-9.0532,-9.0532,-9.0531,-9.0115,-9.0235,-9.0213,-9.034,-9.0341,-9.0424,-9.0446,-9.0473,-9.0488,-9.0585,-9.0637,-9.0627,-9.0633,-9.069,-9.0746,-9.074,-9.0764,-9.0825,-9.0807,-9.0558,-9.0522,-9.0488,-9.0456,-9.0831,-9.0832,-9.1067,-9.1069,-9.1071]},{"header":{"parameterUnit":"m.s-1","parameterCategory":1,"la1":30.2991,"la2":30.254,"lo1":-89.0895,"lo2":-89.0444,"dy":0.0017,"dx":0.0017,"nx":28,"ny":28,"refTime":"2024-06-17T09:00:00:Z","depth":0,"parameterNumber":3,"parameterNumberName":"V-component_of_WINDS"},"data":[0,0,0,0,0,0,0,0,0,0,0,0,0,0,0,0,0,0,0,0,0,0,0,0,0,0,0,0,0,0,0,0,0,0,0,0,0,0,0,0,0,0,0,0,0,0,0,0,0,0,0,0,0,0,0,0,0,0,-0.525,-0.5249,0,-0.5153,-0.5151,-0.515,-0.5152,-0.5153,-0.5155,-0.5156,-0.5054,-0.5051,-0.5047,0,0,0,0,0,0,0,0,0,0,0,0,0,-0.5434,-0.543,-0.525,-0.5249,-0.5248,-0.5153,-0.5151,-0.515,-0.5152,-0.5153,-0.5155,-0.5156,-0.5056,-0.5051,-0.5046,0,0,0,0,0,0,0,0,0,0,0,0,0,-0.5347,-0.5429,-0.525,-0.5237,-0.5235,-0.5153,-0.5151,-0.515,-0.5151,-0.5153,-0.5155,-0.5157,-0.5057,-0.5052,-0.5046,-0.497,0,0,-0.5028,-0.5025,0,0,0,0,0,0,0,0,-0.5352,-0.534,-0.524,-0.5238,-0.5235,-0.5167,-0.5179,-0.5089,-0.5151,-0.5183,-0.5156,-0.5158,-0.509,-0.5082,-0.5059,-0.4965,-0.4961,-0.5027,-0.5024,-0.5021,-0.502,0,0,0,0,0,0,0,-0.5358,-0.5344,-0.5211,-0.5239,-0.5236,-0.5235,-0.5225,-0.5162,-0.5127,-0.518,-0.518,-0.5169,-0.5089,-0.5065,-0.5057,-0.496,-0.5027,-0.5022,-0.5019,-0.5016,-0.4793,-0.479,0,0,0,0,0,0,-0.5367,-0.5349,-0.5215,-0.5209,-0.53,-0.523,-0.5218,-0.5187,-0.5127,-0.512,-0.5167,-0.5169,-0.5074,-0.5063,-0.5053,-0.4955,-0.5021,-0.5016,-0.5012,-0.4795,-0.4792,-0.479,0,0,0,0,0,0,-0.5371,-0.5355,-0.5219,-0.5279,-0.5261,-0.5225,-0.5189,-0.5184,-0.5159,-0.5117,-0.5111,-0.5149,-0.5075,-0.5061,-0.4989,-0.4952,-0.5013,-0.5008,-0.4798,-0.4794,-0.4791,-0.4763,0,0,0,0,0,0,-0.5376,-0.5356,-0.5328,-0.5278,-0.5258,-0.5158,-0.5187,-0.518,-0.5149,-0.5151,-0.5098,-0.5092,-0.5075,-0.4998,-0.4984,-0.4945,-0.5003,-0.4801,-0.4796,-0.4792,-0.4767,-0.4758,-0.4751,0,0,0,0,0,-0.5383,-0.5325,-0.5327,-0.5311,-0.5222,-0.5156,-0.5144,-0.5127,-0.5146,-0.5116,-0.5089,-0.5093,-0.496,-0.4991,-0.4974,-0.4933,-0.4803,-0.4798,-0.4792,-0.477,-0.476,-0.4752,0,0,0,0,0,0,-0.5372,-0.5319,-0.532,-0.5245,-0.5204,-0.5156,-0.5118,-0.5118,-0.5071,-0.5074,-0.5055,-0.5043,-0.497,-0.4946,-0.4981,-0.4854,-0.4884,-0.4875,-0.4872,-0.4862,-0.4855,-0.486,-0.4998,0,0,0,0,0,-0.5361,-0.5312,-0.5268,-0.5206,-0.5186,-0.5155,-0.5126,-0.5116,-0.5073,-0.5056,-0.5024,-0.4981,-0.4929,-0.4895,-0.4846,-0.4765,-0.475,-0.4728,-0.4721,-0.4715,-0.4705,-0.4655,-0.4642,-0.4772,-0.4772,-0.4772,0,0,-0.5338,-0.5302,-0.5273,-0.5203,-0.517,-0.5117,-0.5141,-0.5086,-0.5045,-0.5048,-0.4976,-0.4951,-0.4902,-0.4824,-0.4788,-0.4801,-0.4667,-0.4708,-0.4703,-0.4697,-0.4648,-0.4635,-0.4625,-0.4768,-0.4769,-0.4769,0,0,-0.5267,-0.5238,-0.5179,-0.5146,-0.5097,-0.5076,-0.5063,-0.5013,-0.4996,-0.4925,-0.4923,-0.4875,-0.4788,-0.4751,-0.4721,-0.4633,-0.4633,-0.4618,-0.4577,-0.4527,-0.4517,-0.4508,-0.447,-0.4458,-0.461,-0.461,-0.461,0,-0.5243,-0.5165,-0.515,-0.5092,-0.5059,-0.5059,-0.4998,-0.4967,-0.4904,-0.488,-0.4897,-0.4783,-0.4751,-0.4661,-0.4639,-0.4617,-0.4597,-0.4622,-0.452,-0.4511,-0.4502,-0.4466,-0.4452,-0.4608,-0.4609,-0.4609,-0.4609,0,-0.5135,-0.5081,-0.504,-0.4977,-0.494,-0.4882,-0.4856,-0.482,-0.4813,-0.479,-0.4715,-0.4676,-0.4616,-0.4595,-0.4589,-0.4502,-0.4511,-0.4525,-0.4553,-0.4488,-0.4453,-0.444,-0.4605,-0.4606,-0.4607,-0.4607,0,0,-0.5053,-0.4982,-0.4966,-0.4935,-0.488,-0.4836,-0.4777,-0.4717,-0.4684,-0.4641,-0.4587,-0.4512,-0.4522,-0.4488,-0.4478,-0.4435,-0.436,-0.4453,-0.4451,-0.4431,-0.4256,-0.4241,-0.4226,-0.4362,-0.436,-0.4358,-0.4258,0,-0.4972,-0.4865,-0.4848,-0.4754,-0.47,-0.4698,-0.4645,-0.4604,-0.4581,-0.4531,-0.4506,-0.445,-0.4471,-0.445,-0.4408,-0.4378,-0.4324,-0.4386,-0.4307,-0.4304,-0.4313,-0.4209,-0.4195,-0.4103,-0.4245,-0.4243,-0.4241,0,-0.4862,-0.4813,-0.4713,-0.466,-0.4637,-0.4589,-0.4531,-0.4485,-0.4437,-0.4423,-0.4383,-0.4377,-0.4312,-0.4346,-0.4253,-0.4296,-0.4263,-0.4243,-0.4239,-0.4226,-0.4265,-0.4188,-0.4073,-0.4057,-0.4221,-0.4223,-0.4224,0,-0.4805,-0.4715,-0.4641,-0.4616,-0.4554,-0.4519,-0.4492,-0.4447,-0.441,-0.436,-0.4335,-0.4278,-0.4246,-0.4201,-0.4178,-0.4206,-0.4084,-0.4118,-0.4066,-0.4066,-0.4036,-0.4037,-0.3908,-0.4026,-0.4026,-0.4026,-0.4026,0,-0.4712,-0.4649,-0.4613,-0.4567,-0.4495,-0.4477,-0.4405,-0.4379,-0.4338,-0.4284,-0.4282,-0.4232,-0.4208,-0.4153,-0.4136,-0.4057,-0.4045,-0.4028,-0.4023,-0.4025,-0.4026,-0.3998,-0.4002,-0.4022,-0.4023,-0.4024,-0.4025,0,-0.4634,-0.4608,-0.4526,-0.4474,-0.4459,-0.4408,-0.4362,-0.4316,-0.4293,-0.4226,-0.4209,-0.4172,-0.4108,-0.4082,-0.4004,-0.3991,-0.3899,-0.3903,-0.3914,-0.3911,-0.3858,-0.3861,-0.3702,-0.3678,-0.3818,-0.3816,-0.3815,0,-0.4573,-0.4524,-0.4465,-0.4429,-0.44,-0.4343,-0.4305,-0.4285,-0.4245,-0.4185,-0.4145,-0.408,-0.4027,-0.3923,-0.3889,-0.3827,-0.3825,-0.3774,-0.3815,-0.3817,-0.3816,-0.3816,-0.3808,-0.3764,-0.3763,-0.3762,-0.3761,0,-0.4466,-0.4455,-0.4401,-0.4341,-0.4296,-0.4248,-0.4201,-0.4172,-0.4144,-0.4099,-0.4032,-0.3991,-0.3909,-0.3843,-0.3779,-0.3749,-0.3747,-0.3749,-0.3732,-0.373,-0.3735,-0.3724,-0.3886,-0.3751,-0.3752,-0.3753,-0.3753,-0.3753,-0.439,-0.4344,-0.4294,-0.4232,-0.4195,-0.415,-0.4102,-0.4073,-0.4017,-0.3948,-0.394,-0.3867,-0.3816,-0.373,-0.3698,-0.3638,-0.3651,-0.3629,-0.3622,-0.3615,-0.3608,-0.375,-0.3628,-0.3628,-0.3628,-0.3628,-0.3629,0,-0.4277,-0.4245,-0.4189,-0.4122,-0.4072,-0.4078,-0.4025,-0.3982,-0.3918,-0.3872,-0.3818,-0.3739,-0.3674,-0.3634,-0.3568,-0.3527,-0.3525,-0.351,-0.3509,-0.3501,-0.3604,-0.3621,-0.3513,-0.3513,-0.3513,-0.3513,-0.3513,-0.3513,-0.4212,-0.4132,-0.4115,-0.4015,-0.3983,-0.391,-0.3878,-0.3836,-0.3798,-0.3709,-0.3654,-0.3629,-0.3583,-0.3513,-0.3453,-0.3443,-0.3415,-0.3398,-0.3388,-0.3483,-0.3495,-0.3506,-0.3522,-0.3394,-0.3394,-0.3289,-0.3288,-0.3287]}]]